Flag for Romania Weather past 2 weeks in Brăila, Romania

Now
88 °F

Partly sunny.


Feels Like: 87 °F
Forecast: 64 / 91 °F
Wind: 1 mph from Northeast

Location: Galati

Current Time: Jul 29, 2014 at 5:55:14 PM

Latest Report: Jul 29, 2014 at 5:00 PM


Visibility: 13 mi

Pressure: 29.89 "Hg

Humidity: 36%

Dew point: 58 °F

Location of BrăilaLocation

Historic Weather in Brăila — Graph

°F

Brăila temperature yesterday

Maximum temperature yesterday: 90 °F (at 2:00 PM)
Minimum temperature yesterday: 65 °F (at 7:00 AM)
Average temperature yesterday: 78 °F

Past Weeks' High & Low Weather Summary

 TemperatureHumidityPressure
High93 °F (Jul 22, 5:00 PM)100% (Jul 23, 7:00 AM)30.03 "Hg (Jul 23, 7:00 AM)
Low64 °F (Jul 15, 3:00 PM)29% (Jul 21, 4:00 PM)29.74 "Hg (Jul 23, 4:00 PM)
Average75 °F68%29.89 "Hg
* Reported Jul 14 4:00 PM — Jul 29 4:00 PM, Brăila, Weather by CustomWeather, © 2014

Note: Actual official high and low records may vary slightly from our data, if they occured in-between our weather recording intervals... More about our weather records

Advertising

Brăila weather history for previous 24 hours

 ConditionsComfort  
Time TempWeatherWind HumidityBarometerVisibility
4:00 PM
Jul 29
85 °FPartly sunny.1 mph44%29.90 "Hg12 mi
3:00 PM88 °FOvercast.2 mph40%29.90 "Hg12 mi
2:00 PM85 °FOvercast.2 mph44%29.91 "Hg12 mi
1:00 PM83 °FOvercast.2 mph48%29.92 "Hg12 mi
12:00 PM81 °FOvercast.3 mph55%29.93 "Hg12 mi
11:00 AM81 °FOvercast.3 mph57%29.93 "Hg12 mi
10:00 AM76 °FOvercast.2 mph73%29.93 "Hg6 mi
9:00 AM71 °FOvercast.2 mph77%29.93 "Hg6 mi
8:00 AM68 °FOvercast.3 mph80%29.93 "Hg6 mi
7:00 AM66 °FOvercast.3 mph83%29.92 "Hg6 mi
6:00 AM66 °FScattered clouds.3 mph80%29.92 "Hg12 mi
5:00 AM68 °FPassing clouds.3 mph78%29.92 "Hg12 mi
4:00 AM68 °FClear.2 mph77%29.93 "Hg12 mi
3:00 AM69 °FClear.3 mph75%29.93 "Hg12 mi
2:00 AM70 °FClear.2 mph73%29.94 "Hg12 mi
1:00 AM71 °FClear.2 mph74%29.94 "Hg12 mi
12:00 AM73 °FClear.1 mph74%29.95 "Hg12 mi
11:00 PM
Jul 28
74 °FPassing clouds.1 mph75%29.95 "Hg12 mi
10:00 PM76 °FPassing clouds.2 mph69%29.95 "Hg12 mi
9:00 PM79 °FPassing clouds.2 mph57%29.94 "Hg12 mi
8:00 PM82 °FScattered clouds.3 mph51%29.93 "Hg12 mi
7:00 PM85 °FScattered clouds.5 mph42%29.93 "Hg12 mi
6:00 PM87 °FPassing clouds.5 mph40%29.94 "Hg12 mi
5:00 PM88 °FPassing clouds.6 mph38%29.95 "Hg12 mi
Weather by CustomWeather, © 2014

See weather overviewHow to use our weather pages